Temp
88 88 88 89 89 90 89 89 91 91 90 92 92 91 91 91 91 92 93 92 92 91 91 90 90 90 93 91 90 90 90 89 91 92 91 92 93 94 96 94 93 94
87 88 88 90 89 89 90 91 91 91 90 90 92 92 92 92 92 92 91 91 91 92 91 91 90 90 90 92 90 90 89 90 90 96 91 90 91 94 94 94 94 93
88 88 90 90 91 90 92 91 91 92 92 93 92 92 93 93 92 91 91 91 92 94 91 91 91 90 91 91 89 90 91 88 89 94 91 90 92 91 93 96 96 95
88 89 91 92 93 93 93 91 91 91 93 93 93 94 93 96 93 93 91 90 91 91 92 92 92 93 92 92 90 90 91 89 91 90 89 90 91 93 93 94 94 95
90 90 92 93 93 93 93 93 93 93 93 93 94 93 92 91 92 94 92 91 90 92 91 91 91 92 91 90 90 90 91 91 91 89 89 88 89 90 93 94 92 92
90 90 90 92 92 92 94 94 94 95 94 95 93 95 94 93 93 94 94 93 94 94 95 94 93 93 93 91 90 90 92 93 93 89 89 88 91 93 96 94 92 91
91 91 91 92 94 93 94 94 94 94 96 96 95 94 94 94 93 92 93 94 95 94 95 93 91 92 93 91 89 89 89 89 90 89 87 90 89 89 93 92 90 89
92 93 92 92 93 94 93 95 95 94 95 95 95 94 94 94 93 95 94 93 94 94 93 94 92 89 93 93 90 89 90 94 93 88 87 88 89 88 89 93 91 88
93 93 93 93 93 94 95 96 96 96 95 95 96 96 95 94 94 94 92 92 92 92 91 92 91 92 92 92 91 90 89 92 95 92 89 90 90 89 90 91 91 90
92 93 94 94 94 94 95 95 96 96 95 94 95 95 94 92 92 93 92 90 92 91 91 90 91 92 93 93 91 91 91 89 90 91 92 91 91 91 92 91 91 90
93 94 93 93 94 95 96 96 97 97 95 94 95 94 94 93 91 92 92 91 93 92 91 91 92 92 91 93 94 94 92 93 91 91 91 91 91 90 90 91 90 90
92 93 94 93 94 95 96 97 97 97 96 95 95 93 94 94 92 93 93 91 92 93 93 92 91 92 91 91 93 94 94 93 93 92 92 92 92 92 92 92 91 90
93 93 93 94 94 94 96 96 96 97 97 95 95 94 94 94 94 92 92 93 92 94 94 92 92 93 91 91 92 93 93 92 93 93 92 92 92 92 92 91 92 92
90 92 93 92 93 92 93 96 96 96 96 95 95 93 94 95 95 94 94 94 94 94 94 93 92 91 91 90 91 92 93 93 92 92 93 93 92 91 92 92 92 92
88 90 91 92 90 90 91 92 94 95 95 95 94 94 96 96 96 96 94 94 94 93 94 95 94 93 93 92 90 91 92 93 93 92 92 91 92 93 92 91 92 92
87 88 89 89 90 89 88 90 92 93 95 94 94 94 93 93 93 94 95 94 92 92 93 95 95 96 91 88 88 92 92 94 93 91 90 90 89 90 91 90 92 93
86 87 87 87 88 88 88 88 90 92 92 91 91 92 91 90 91 92 94 95 95 93 93 95 95 96 83 76 77 80 90 92 91 89 90 90 91 89 89 90 91 93
86 86 86 86 86 86 86 87 89 89 89 89 90 90 89 91 89 89 90 92 92 94 93 93 93 85 72 73 74 74 80 88 91 91 91 91 91 92 92 92 90 91
85 85 85 85 85 86 86 86 86 87 88 88 88 89 90 88 87 89 90 90 91 90 91 93 94 76 71 71 72 71 72 81 90 90 90 90 91 91 90 90 90 90
84 85 85 85 85 85 86 85 85 85 87 88 87 87 87 87 88 88 88 88 88 88 88 90 91 80 71 71 71 70 70 76 87 89 90 90 89 88 89 90 89 88
83 84 84 85 85 85 85 84 84 85 85 86 87 86 85 85 86 87 87 88 88 89 90 90 93 70 69 69 68 68 68 76 87 90 90 90 90 89 88 88 87 87
83 83 83 84 84 84 84 84 84 84 84 85 86 86 87 87 87 87 87 87 87 88 88 88 88 64 67 66 65 67 68 84 87 87 87 89 90 89 87 86 86 86
81 83 83 83 83 82 83 83 83 83 84 86 85 85 85 86 86 87 87 87 86 87 87 86 88 67 63 63 64 64 72 86 87 89 88 87 87 88 87 86 87 87
80 82 82 82 82 82 82 83 83 84 84 85 84 84 84 85 86 86 87 87 86 86 89 86 90 71 61 61 62 62 76 87 87 87 87 86 86 87 87 86 86 83
81 82 82 82 81 82 83 82 83 83 84 85 85 85 85 85 87 86 86 86 86 86 85 86 87 70 60 60 61 62 72 85 86 87 85 85 86 85 86 86 85 83
82 82 81 81 82 82 83 83 83 83 83 84 84 85 86 86 85 86 84 85 85 85 84 84 83 79 67 58 60 62 64 78 86 84 83 83 83 83 83 83 82 82
MSLP
1015.58 1015.66 1015.86 1015.98 1016.02 1016.02 1016.26 1016.50 1016.46 1016.66 1016.70 1016.54 1016.82 1016.94 1017.02 1016.90 1016.86 1016.94 1016.98 1017.06 1017.34 1017.50 1017.62 1017.82 1017.86 1018.02 1017.94 1018.06 1018.18 1018.30 1018.42 1018.54 1018.38 1018.38 1018.54 1018.58 1018.54 1018.42 1018.38 1018.38 1018.46 1018.38
1015.54 1015.54 1015.58 1015.66 1015.86 1015.90 1015.90 1015.90 1016.06 1016.14 1016.54 1016.54 1016.42 1016.46 1016.54 1016.66 1016.82 1016.94 1017.10 1017.22 1017.26 1017.38 1017.42 1017.58 1017.70 1017.82 1017.86 1017.82 1018.06 1018.18 1018.34 1018.34 1018.58 1017.82 1018.42 1018.62 1018.58 1018.30 1018.34 1018.26 1018.26 1018.18
1015.30 1015.50 1015.58 1015.70 1015.66 1015.86 1015.78 1015.74 1015.74 1015.94 1016.10 1016.22 1016.18 1016.26 1016.42 1016.42 1016.66 1016.78 1016.86 1017.02 1017.10 1016.98 1017.26 1017.38 1017.46 1017.62 1017.70 1017.74 1017.94 1018.06 1018.14 1018.38 1018.50 1017.94 1018.26 1018.58 1018.34 1018.46 1018.26 1017.98 1017.82 1017.94
1015.10 1015.10 1015.18 1015.22 1015.14 1015.38 1015.46 1015.62 1015.78 1015.86 1015.66 1015.98 1016.10 1016.02 1016.14 1015.98 1016.22 1016.50 1016.74 1016.90 1016.98 1017.06 1016.98 1017.06 1017.22 1017.22 1017.38 1017.50 1017.74 1017.90 1017.86 1018.14 1017.94 1018.06 1018.38 1018.30 1018.26 1018.18 1018.10 1018.02 1017.98 1017.98
1014.74 1014.90 1014.82 1014.90 1014.86 1014.90 1015.10 1015.38 1015.54 1015.54 1015.66 1015.58 1015.70 1015.78 1016.06 1016.14 1016.26 1016.26 1016.50 1016.78 1016.90 1016.98 1017.02 1017.18 1017.22 1017.26 1017.30 1017.46 1017.66 1017.86 1017.78 1017.94 1017.82 1018.06 1018.34 1018.54 1018.30 1018.30 1018.10 1017.98 1018.22 1018.34
1014.38 1014.54 1014.66 1014.78 1014.78 1014.94 1015.06 1015.18 1015.18 1015.18 1015.30 1015.42 1015.62 1015.46 1015.70 1016.02 1016.14 1016.06 1016.14 1016.42 1016.50 1016.66 1016.62 1016.74 1016.94 1016.98 1017.06 1017.30 1017.54 1017.62 1017.58 1017.62 1017.50 1017.90 1018.26 1018.46 1018.26 1017.82 1017.70 1017.82 1018.10 1018.34
1014.18 1014.38 1014.58 1014.50 1014.62 1014.66 1014.86 1014.82 1014.90 1014.90 1014.94 1014.90 1015.06 1015.38 1015.34 1015.78 1015.98 1015.98 1016.06 1016.14 1016.14 1016.26 1016.38 1016.54 1016.86 1016.94 1016.86 1017.10 1017.46 1017.70 1017.70 1017.70 1017.62 1017.86 1018.22 1018.14 1018.10 1018.18 1017.82 1017.86 1018.10 1018.30
1013.74 1013.86 1014.10 1014.22 1014.42 1014.46 1014.70 1014.58 1014.66 1014.74 1014.70 1014.78 1015.06 1015.14 1015.22 1015.46 1015.70 1015.66 1015.82 1015.98 1016.14 1016.18 1016.30 1016.38 1016.66 1016.98 1016.86 1016.86 1017.30 1017.58 1017.62 1017.34 1017.54 1017.86 1018.14 1018.22 1018.06 1018.22 1018.06 1017.82 1017.86 1018.26
1013.38 1013.54 1013.74 1014.02 1014.18 1014.22 1014.34 1014.26 1014.34 1014.42 1014.46 1014.78 1014.82 1014.82 1014.94 1015.18 1015.38 1015.58 1015.78 1015.86 1016.02 1016.06 1016.34 1016.46 1016.54 1016.66 1016.70 1016.74 1016.98 1017.30 1017.50 1017.22 1016.94 1017.30 1017.74 1017.94 1017.98 1018.02 1017.90 1017.70 1017.86 1017.98
1013.30 1013.26 1013.38 1013.66 1013.90 1013.86 1013.98 1013.98 1013.90 1014.10 1014.18 1014.54 1014.66 1014.62 1014.90 1015.06 1015.18 1015.30 1015.54 1015.86 1015.98 1016.14 1016.30 1016.38 1016.38 1016.46 1016.42 1016.46 1016.78 1016.94 1017.10 1017.30 1017.22 1017.22 1017.26 1017.38 1017.58 1017.58 1017.50 1017.54 1017.66 1017.78
1012.98 1012.98 1013.14 1013.34 1013.50 1013.46 1013.58 1013.62 1013.66 1013.78 1013.98 1014.38 1014.46 1014.62 1014.66 1014.94 1015.18 1015.18 1015.42 1015.66 1015.86 1015.94 1016.06 1016.18 1016.18 1016.22 1016.38 1016.30 1016.22 1016.30 1016.62 1016.74 1016.86 1016.98 1017.10 1017.18 1017.22 1017.30 1017.34 1017.38 1017.50 1017.62
1012.58 1012.66 1012.86 1013.02 1013.14 1013.18 1013.18 1013.22 1013.30 1013.46 1013.70 1013.94 1014.14 1014.50 1014.54 1014.62 1014.98 1015.10 1015.22 1015.50 1015.54 1015.54 1015.58 1015.78 1015.86 1015.94 1016.14 1016.22 1016.14 1016.10 1016.22 1016.38 1016.50 1016.70 1016.78 1016.86 1016.86 1016.94 1016.98 1017.02 1017.14 1017.26
1012.18 1012.38 1012.46 1012.58 1012.78 1012.86 1012.78 1012.90 1013.02 1013.10 1013.34 1013.66 1013.78 1014.06 1014.34 1014.54 1014.62 1014.90 1014.94 1015.10 1015.26 1015.26 1015.34 1015.46 1015.66 1015.70 1015.90 1016.06 1016.06 1016.02 1016.10 1016.30 1016.34 1016.42 1016.54 1016.62 1016.66 1016.66 1016.70 1016.70 1016.78 1016.82
1011.98 1011.94 1012.14 1012.26 1012.38 1012.62 1012.78 1012.78 1012.82 1012.94 1013.10 1013.22 1013.38 1013.82 1014.02 1014.14 1014.38 1014.54 1014.66 1014.74 1014.90 1014.98 1015.06 1015.06 1015.38 1015.66 1015.78 1015.86 1015.90 1015.94 1016.02 1016.14 1016.30 1016.38 1016.38 1016.38 1016.34 1016.42 1016.38 1016.42 1016.46 1016.46
1011.78 1011.74 1011.86 1012.10 1012.38 1012.66 1012.82 1012.90 1012.86 1012.90 1012.94 1013.06 1013.26 1013.46 1013.54 1013.62 1013.74 1013.94 1014.34 1014.58 1014.62 1014.74 1014.82 1014.82 1015.06 1015.34 1015.38 1015.58 1015.90 1015.98 1015.90 1015.94 1016.02 1016.14 1016.26 1016.34 1016.34 1016.22 1016.18 1016.26 1016.30 1016.26
1011.66 1011.66 1011.74 1011.86 1012.18 1012.54 1012.74 1012.78 1012.78 1012.82 1012.90 1013.14 1013.26 1013.38 1013.46 1013.50 1013.62 1013.74 1013.94 1014.26 1014.58 1014.70 1014.74 1014.78 1014.82 1014.74 1014.94 1015.26 1015.46 1015.58 1015.70 1015.74 1015.74 1015.86 1016.06 1016.18 1016.34 1016.34 1016.30 1016.22 1016.18 1016.06
1011.50 1011.78 1011.82 1012.02 1012.06 1012.26 1012.42 1012.62 1012.66 1012.62 1012.78 1012.98 1013.14 1013.30 1013.46 1013.58 1013.74 1013.90 1013.94 1013.94 1014.14 1014.46 1014.70 1014.62 1014.54 1014.42 1014.82 1015.30 1015.58 1015.78 1015.74 1015.66 1015.82 1015.90 1015.86 1015.98 1016.02 1016.18 1016.34 1016.22 1015.98 1015.86
1011.22 1011.50 1011.82 1011.98 1012.06 1012.26 1012.38 1012.50 1012.54 1012.70 1012.82 1012.94 1013.06 1013.22 1013.34 1013.38 1013.74 1013.98 1013.94 1013.94 1014.06 1014.18 1014.38 1014.46 1014.42 1014.46 1014.94 1015.22 1015.54 1015.74 1015.86 1015.78 1015.62 1015.62 1015.62 1015.70 1015.70 1015.70 1015.66 1015.74 1015.90 1015.86
1010.98 1011.22 1011.50 1011.74 1011.90 1012.06 1012.22 1012.42 1012.66 1012.82 1012.90 1012.98 1013.14 1013.06 1013.18 1013.66 1013.78 1013.90 1014.02 1013.94 1014.06 1014.34 1014.38 1014.22 1014.18 1014.46 1014.78 1015.14 1015.38 1015.62 1015.82 1015.90 1015.62 1015.50 1015.54 1015.54 1015.50 1015.54 1015.62 1015.66 1015.66 1015.78
1010.78 1010.90 1011.18 1011.38 1011.54 1011.78 1011.98 1012.30 1012.54 1012.78 1012.70 1012.66 1012.86 1013.06 1013.34 1013.54 1013.62 1013.78 1013.82 1013.94 1014.02 1014.18 1014.30 1014.22 1014.10 1014.22 1014.54 1014.86 1015.14 1015.42 1015.58 1015.74 1015.50 1015.38 1015.26 1015.26 1015.38 1015.50 1015.50 1015.50 1015.62 1015.82
1010.54 1010.70 1010.94 1011.18 1011.38 1011.66 1011.90 1012.14 1012.38 1012.54 1012.62 1012.58 1012.66 1012.94 1013.22 1013.38 1013.54 1013.66 1013.66 1013.74 1013.82 1013.86 1013.94 1014.02 1013.70 1014.06 1014.38 1014.70 1015.02 1015.30 1015.46 1015.62 1015.22 1015.06 1014.94 1014.98 1015.02 1015.10 1015.34 1015.46 1015.50 1015.62
1010.14 1010.46 1010.70 1010.94 1011.26 1011.58 1011.86 1012.10 1012.14 1012.30 1012.54 1012.50 1012.58 1012.62 1012.66 1012.82 1013.06 1013.18 1013.42 1013.54 1013.50 1013.58 1013.70 1013.78 1013.62 1014.06 1014.26 1014.62 1014.90 1015.10 1015.34 1015.22 1014.90 1015.02 1014.98 1014.86 1014.82 1014.98 1015.18 1015.26 1015.34 1015.50
1009.86 1010.14 1010.42 1010.74 1011.10 1011.46 1011.74 1011.94 1012.06 1012.18 1012.18 1012.10 1012.54 1012.66 1012.74 1012.78 1012.82 1012.90 1012.94 1013.14 1013.42 1013.50 1013.70 1013.74 1013.70 1014.30 1014.38 1014.62 1014.78 1014.94 1015.06 1014.78 1014.62 1014.58 1014.66 1014.82 1014.90 1014.86 1015.02 1015.06 1015.06 1015.22
1009.78 1009.82 1010.26 1010.62 1010.94 1011.30 1011.50 1011.66 1011.70 1011.78 1011.94 1011.86 1012.30 1012.54 1012.74 1012.66 1012.62 1012.74 1012.78 1012.86 1013.18 1013.46 1013.34 1013.74 1013.54 1014.26 1014.46 1014.66 1014.82 1014.90 1014.74 1014.42 1014.42 1014.58 1014.66 1014.78 1014.82 1014.82 1014.82 1014.98 1015.02 1015.26
1009.26 1009.58 1010.02 1010.42 1010.82 1010.98 1011.14 1011.42 1011.54 1011.66 1011.62 1011.62 1011.90 1012.10 1012.34 1012.38 1012.46 1012.70 1012.82 1012.78 1012.86 1013.06 1013.14 1013.42 1013.46 1014.46 1014.78 1014.82 1014.82 1014.78 1014.78 1014.30 1014.26 1014.46 1014.82 1014.90 1014.90 1014.94 1014.82 1014.86 1015.02 1015.26
1008.98 1009.50 1009.90 1010.34 1010.62 1010.70 1010.78 1011.06 1011.18 1011.42 1011.58 1011.70 1011.86 1011.90 1012.06 1012.10 1012.30 1012.42 1012.78 1012.70 1012.62 1012.86 1013.10 1013.30 1013.50 1014.18 1014.94 1015.18 1015.18 1015.10 1014.98 1014.58 1014.06 1014.58 1014.98 1014.98 1014.98 1015.06 1015.18 1015.06 1015.14 1015.22
Wind_Speed
8 8 8 8 8 7 8 8 8 8 6 7 7 7 7 6 6 5 6 5 6 6 6 5 4 4 4 4 3 3 2 1 3 2 2 2 3 4 4 2 3 4
10 9 8 8 8 7 7 8 8 7 7 6 6 6 6 6 7 6 6 6 6 7 5 6 6 5 5 4 4 4 3 3 4 3 2 3 4 4 3 4 3 3
11 10 10 10 9 10 10 8 7 7 7 8 7 5 6 7 7 7 6 6 6 7 7 6 5 5 6 5 4 4 5 4 4 3 2 2 3 3 4 5 4 2
12 11 11 11 10 10 9 9 8 7 7 7 8 7 7 6 7 8 7 7 6 6 5 6 5 6 6 6 5 5 4 4 4 2 2 3 3 4 4 3 4 4
13 12 11 10 9 9 9 9 10 9 9 7 7 7 7 6 6 7 7 8 7 7 6 6 6 6 5 5 5 5 5 5 5 4 4 3 4 4 5 4 3 5
12 11 11 10 10 9 9 10 9 9 9 9 8 8 8 8 8 7 7 8 8 8 8 8 7 7 7 6 6 5 5 5 4 5 5 4 5 5 4 3 3 5
14 13 13 12 11 10 10 10 9 9 9 8 8 8 8 9 9 7 7 7 8 8 8 7 6 6 6 6 6 6 5 5 4 4 5 5 5 5 5 5 5 5
14 13 13 12 13 12 12 10 10 9 9 8 9 8 8 8 8 8 8 7 8 7 6 7 7 7 7 7 7 7 7 6 7 7 6 6 5 5 5 5 4 5
13 13 13 14 14 12 12 12 11 10 10 9 9 8 8 8 8 8 7 8 8 7 7 7 7 8 8 7 7 7 7 7 6 6 7 7 7 7 7 6 6 6
13 13 15 14 14 12 13 12 11 11 10 10 9 8 8 8 7 8 8 8 8 8 8 8 8 8 8 8 8 8 8 7 7 6 6 6 6 6 6 6 6 6
14 14 14 15 14 13 14 13 12 11 10 11 10 9 9 8 8 8 8 9 9 10 9 9 9 9 9 8 8 8 8 8 8 7 7 7 7 6 6 6 6 6
14 14 14 15 15 14 14 13 13 12 11 10 11 10 10 9 9 9 9 9 9 9 9 9 9 9 8 8 9 8 8 8 7 7 7 7 7 7 7 7 6 7
14 14 13 14 14 13 12 12 13 13 12 11 11 11 11 10 10 10 9 9 10 10 10 9 9 9 8 8 9 8 8 7 7 8 7 7 7 7 7 7 7 7
13 13 13 12 11 11 12 12 12 12 12 12 11 12 12 12 11 10 10 10 9 9 9 9 9 8 8 8 8 8 8 8 8 8 8 8 7 7 7 7 8 8
12 12 12 12 11 10 11 12 12 11 11 11 11 11 10 11 11 11 10 10 9 9 9 8 8 8 8 8 8 8 7 8 7 8 8 7 7 8 8 8 7 7
11 11 11 12 12 12 12 12 12 12 12 12 11 11 10 10 10 10 10 10 9 9 9 8 8 7 7 6 3 5 7 7 7 6 7 7 7 7 7 7 7 8
11 10 10 11 11 11 12 12 12 12 11 11 11 11 11 10 9 10 10 10 10 9 9 9 8 7 9 11 8 6 7 7 7 6 7 7 8 8 8 7 7 7
12 12 11 11 11 11 11 11 11 11 11 11 11 11 10 10 10 10 10 10 8 9 9 8 8 6 13 11 10 10 8 7 7 7 7 7 7 8 7 6 6 6
12 12 13 12 12 11 10 9 10 10 11 10 11 10 10 10 10 10 10 10 9 9 9 9 9 12 12 12 11 9 8 7 6 7 8 8 8 8 8 8 7 6
13 13 13 12 12 11 10 10 10 11 11 10 9 9 9 9 11 11 10 9 9 9 8 8 10 10 12 12 10 10 9 8 6 7 8 8 8 7 6 6 5 4
13 13 12 11 11 10 10 10 10 10 10 10 10 10 10 10 10 10 9 9 10 9 10 9 8 12 12 11 10 10 9 8 7 7 7 8 7 6 5 5 4 3
13 13 12 10 10 10 10 10 10 11 11 10 9 9 9 9 9 9 10 10 10 10 10 11 5 12 11 10 10 9 10 7 7 7 8 8 7 6 5 4 4 5
13 13 11 11 10 10 10 10 10 9 10 9 9 9 10 10 10 10 9 10 10 9 9 9 6 6 9 9 9 10 9 7 7 7 7 7 6 6 5 5 6 6
11 11 10 10 9 10 10 9 8 8 8 8 9 9 10 10 9 8 8 8 9 9 9 8 7 7 8 8 8 11 9 7 6 6 6 6 5 5 4 4 4 6
12 10 9 9 9 9 9 9 9 8 7 7 7 7 7 7 8 7 7 7 7 7 7 7 3 6 5 6 7 9 8 6 5 4 5 5 5 5 5 6 5 6
7 7 8 8 9 8 8 8 7 7 7 6 6 6 7 7 7 6 6 7 6 6 5 5 5 5 5 4 3 3 6 5 4 4 4 5 4 5 6 6 5 4
Wind_Direction
193 192 189 194 197 195 192 194 194 191 200 196 195 195 202 193 208 209 205 198 198 209 199 210 208 214 211 194 198 216 237 231 298 184 213 278 293 280 284 288 274 261
195 196 193 195 192 197 200 196 194 195 186 209 207 192 197 193 193 201 203 209 201 208 208 201 203 209 216 207 184 214 202 213 224 231 188 224 241 265 271 265 273 299
194 192 195 199 192 193 198 198 199 199 193 200 201 205 195 197 200 194 203 209 212 207 191 207 202 200 209 207 207 215 209 204 231 241 214 229 274 278 277 282 280 276
196 200 198 202 200 194 201 194 199 205 208 195 202 197 209 202 195 191 197 204 208 213 206 198 207 205 199 208 210 226 214 218 229 233 230 242 245 276 280 276 271 271
196 199 205 203 206 205 201 201 204 197 208 205 199 201 196 211 199 200 192 193 207 207 201 207 200 215 210 212 213 225 219 221 202 205 225 231 234 233 252 257 267 270
199 201 204 208 207 207 207 205 207 206 205 200 204 200 196 195 209 214 197 197 197 210 206 202 201 207 209 200 212 221 226 228 202 193 212 229 249 250 254 246 252 261
196 198 203 205 209 206 214 209 208 212 207 211 195 209 198 198 208 211 212 208 216 204 208 202 207 216 210 208 208 210 224 237 239 207 221 235 233 248 257 251 243 253
200 197 201 204 208 207 211 212 212 207 212 209 205 200 206 207 208 207 206 208 214 212 214 211 200 211 229 214 211 210 222 217 215 220 229 241 253 249 242 253 239 237
203 200 201 205 208 210 209 211 207 211 206 210 214 204 199 213 204 210 207 207 216 210 206 219 213 216 218 226 219 214 221 236 232 212 212 225 227 228 236 232 235 235
204 207 203 204 207 210 209 211 211 205 203 210 213 216 202 202 215 208 202 203 211 210 210 218 215 219 222 216 217 221 223 225 237 244 239 233 236 242 240 235 240 242
205 207 206 205 208 209 209 207 209 207 199 206 210 212 210 197 203 213 211 205 213 212 212 214 218 220 222 228 224 219 220 226 226 224 226 231 238 236 238 245 244 247
205 207 208 207 209 211 211 209 208 208 203 197 206 210 210 205 202 208 212 213 218 222 219 215 218 223 222 228 230 227 224 226 227 229 231 233 231 227 229 232 232 229
203 206 209 210 208 213 214 212 211 209 208 203 202 207 209 211 207 208 213 215 217 223 225 218 218 223 222 221 230 234 234 231 234 231 232 234 230 230 229 228 230 235
205 204 210 211 211 211 219 218 216 215 210 210 206 206 211 210 212 210 208 216 218 221 224 222 215 220 217 220 222 228 228 226 232 242 239 233 230 223 226 228 231 240
202 201 204 206 208 212 215 221 223 222 218 216 213 214 212 215 214 214 216 216 216 222 223 223 218 213 217 210 216 223 237 237 233 231 233 237 238 232 225 230 243 247
202 204 200 201 198 203 206 211 217 218 218 218 219 218 221 220 220 221 220 218 218 216 221 224 225 224 208 202 237 233 220 234 237 237 238 243 244 247 245 241 241 252
193 200 201 202 200 201 203 207 213 216 216 218 217 218 219 217 224 225 225 223 221 219 224 227 227 230 151 154 175 236 258 247 243 242 240 241 242 239 246 245 254 252
193 191 196 197 200 203 206 210 214 216 219 215 217 216 213 215 211 217 222 225 227 229 228 232 237 135 141 159 184 200 222 252 256 253 247 243 243 248 247 245 242 247
198 193 193 196 199 202 203 205 212 216 217 219 221 221 218 217 219 215 219 223 226 229 235 230 235 144 159 168 189 194 202 236 254 257 260 257 260 260 259 258 256 250
203 199 194 195 195 198 198 203 207 210 213 212 215 216 220 217 218 216 217 220 223 229 227 231 240 161 170 176 181 187 188 208 240 249 251 256 259 262 266 266 255 247
204 203 201 197 198 198 197 200 202 209 213 210 206 208 209 213 215 219 217 215 214 216 222 221 223 143 158 163 175 185 187 206 240 244 252 249 248 242 244 238 225 214
198 200 200 199 198 199 202 203 203 206 209 212 216 213 210 209 212 217 215 212 213 213 219 225 161 148 145 158 159 182 177 212 229 234 242 246 235 219 213 208 218 226
201 202 200 197 197 198 203 205 206 207 208 206 212 217 217 212 212 210 210 215 214 216 221 225 192 144 139 152 165 173 187 218 227 229 234 234 233 216 200 205 227 233
206 202 195 196 194 198 202 206 209 210 208 204 211 213 220 222 220 220 215 216 218 216 227 224 219 134 151 159 172 183 210 223 217 226 224 225 223 207 210 218 235 237
191 187 190 194 200 201 203 208 210 210 205 199 204 216 222 220 217 216 210 209 213 217 218 238 193 117 140 163 189 200 219 232 226 218 224 217 220 213 206 231 230 217
172 176 185 198 204 202 203 207 206 207 203 194 195 214 215 211 210 209 206 207 202 203 190 210 207 127 95 30 335 284 267 283 217 219 228 222 218 229 232 232 237 233